Bookmark and Share
Track history (hours):
 

Hong Xiang 2

Last reported at 2014-Apr-16 16:16 UTC. Time now 2014-Apr-16 19:30 UTC.
Position N 30°22' E 122°52'.

Length 96 m; draft 4.5 m.

Type: Ship (hazmat cat A). MMSI: 413413000.

NotesDate/timePositionNaut miles runAvg speedWind from/ knotsBaromVisibWave heightAir tempDewpointWater temp
2014-Apr-16 16:16N 30°22' E 122°52'3512.8
2014-Apr-16 13:30N 29°48' E 122°40'349 9.7
2014-Apr-15 01:33N 24°55' E 119°07'10 9.7
2014-Apr-15 00:33N 24°49' E 118°59'1110.1
2014-Apr-14 23:31N 24°43' E 118°49'19 9.6
2014-Apr-14 21:31N 24°27' E 118°37'18 9.0
2014-Apr-14 19:31N 24°14' E 118°23'8 8.0
2014-Apr-14 18:33N 24°08' E 118°17'8 7.5
2014-Apr-14 17:31N 24°04' E 118°11'13 6.8
2014-Apr-14 15:34N 23°55' E 117°59'7 6.7
2014-Apr-14 14:33N 23°51' E 117°53'7 7.5
2014-Apr-14 13:33N 23°47' E 117°47'16 8.1
2014-Apr-14 11:32N 23°37' E 117°32'221 8.9
2014-Apr-13 10:34N 22°09' E 113°52'1010.0
2014-Apr-13 09:32N 22°19' E 113°48'1110.9
2014-Apr-13 08:32N 22°29' E 113°45'1212.1
2014-Apr-13 07:31N 22°41' E 113°41'1111.0
2014-Apr-13 06:33N 22°50' E 113°35'7 6.9
2014-Apr-13 05:31N 22°57' E 113°33'0 0.0
2014-Apr-12 07:06N 22°57' E 113°33'2 3.7
2014-Apr-12 06:33N 22°55' E 113°34'9 8.7
2014-Apr-12 05:33N 22°47' E 113°37'9 9.3
2014-Apr-12 04:33N 22°39' E 113°42'1010.1
2014-Apr-12 03:31N 22°29' E 113°45'1010.1
2014-Apr-12 02:32N 22°19' E 113°48'1010.1
2014-Apr-12 01:33N 22°10' E 113°46'10 9.9
2014-Apr-12 00:33N 21°60' E 113°43'3 1.2
2014-Apr-11 22:18N 21°58' E 113°40'0 0.0
2014-Apr-11 21:30N 21°58' E 113°40'0 0.0
2014-Apr-11 20:30N 21°58' E 113°40'0 0.0
2014-Apr-11 17:24N 21°58' E 113°40'0 0.0
2014-Apr-11 16:18N 21°58' E 113°40'0 0.0
2014-Apr-11 15:18N 21°58' E 113°40'0 0.0
2014-Apr-11 14:30N 21°58' E 113°40'0 0.0
2014-Apr-11 13:18N 21°58' E 113°40'0 0.1
2014-Apr-11 12:30N 21°58' E 113°40'0 0.1
2014-Apr-11 11:30N 21°58' E 113°40'0 0.1
2014-Apr-11 10:24N 21°58' E 113°40'0 0.0
2014-Apr-11 09:06N 21°58' E 113°40'0 0.0
2014-Apr-11 08:18N 21°58' E 113°40'0 0.0
2014-Apr-11 07:30N 21°58' E 113°40'0 0.0
2014-Apr-11 06:18N 21°58' E 113°40'0 0.0
2014-Apr-11 05:30N 21°58' E 113°40'0 0.0
2014-Apr-11 04:30N 21°58' E 113°40'0 0.1
2014-Apr-11 03:24N 21°58' E 113°40'0 0.0
2014-Apr-11 02:30N 21°58' E 113°40'0 0.0
2014-Apr-11 01:24N 21°58' E 113°40'0 0.1
2014-Apr-11 00:30N 21°58' E 113°40'0 0.1
2014-Apr-10 23:24N 21°58' E 113°40'0 0.0
2014-Apr-10 22:24N 21°58' E 113°40'0 0.0
2014-Apr-10 21:12N 21°58' E 113°40'0 0.0
2014-Apr-10 19:30N 21°58' E 113°40'0 0.0
2014-Apr-10 18:30N 21°58' E 113°40'0 0.0
2014-Apr-10 17:18N 21°58' E 113°40'0 0.1
2014-Apr-10 16:18N 21°58' E 113°40'0 0.0
2014-Apr-10 15:12N 21°58' E 113°40'0 0.0
2014-Apr-10 14:30N 21°58' E 113°40'0 0.0
2014-Apr-10 13:12N 21°58' E 113°40'0 0.0
2014-Apr-10 12:24N 21°58' E 113°40'0 0.0
2014-Apr-10 11:24N 21°58' E 113°40'0 0.0
2014-Apr-10 10:30N 21°58' E 113°40'0 0.0
2014-Apr-10 08:30N 21°58' E 113°40'0 0.0
2014-Apr-10 07:30N 21°58' E 113°40'0 0.0
2014-Apr-10 06:18N 21°58' E 113°40'0 0.1
2014-Apr-10 05:33N 21°58' E 113°40'9 9.0
2014-Apr-10 04:30N 21°54' E 113°32'10 9.8
2014-Apr-10 03:26N 21°48' E 113°22'9 9.9
2014-Apr-10 02:32N 21°43' E 113°14'10 9.5
2014-Apr-10 01:32N 21°39' E 113°05'178 9.9
2014-Apr-09 07:30N 20°10' E 110°20'72 9.0
2014-Apr-08 23:33N 19°49' E 109°07'4 3.9
2014-Apr-08 22:32N 19°46' E 109°10'0 0.0
2014-Apr-08 10:04N 19°46' E 109°10'1 2.4
2014-Apr-08 09:33N 19°45' E 109°09'5 4.6
2014-Apr-08 08:31N 19°49' E 109°07'6111.6
2014-Apr-08 03:17N 20°10' E 110°07'1013.3
2014-Apr-08 02:33N 20°12' E 110°17'16811.8
2014-Apr-07 12:18N 21°33' E 112°55'912.4
2014-Apr-07 11:33N 21°38' E 113°03'1313.3
2014-Apr-07 10:33N 21°45' E 113°16'1212.3
2014-Apr-07 09:32N 21°51' E 113°27'1212.0
2014-Apr-07 08:33N 21°57' E 113°38'1010.3
2014-Apr-07 07:33N 22°06' E 113°45'1111.3
2014-Apr-07 06:33N 22°16' E 113°48'1110.9
2014-Apr-07 05:31N 22°27' E 113°45'1010.7
2014-Apr-07 04:33N 22°37' E 113°42'1010.4
2014-Apr-07 03:33N 22°47' E 113°38'10 9.8
2014-Apr-07 02:33N 22°56' E 113°33'  

Dump ship's entire track history

sailing weather and tide predictions

Hong Xiang 2 — BYBA — position and weather